Location: Unspecified
(0.0000°N, 0.0000°E)
Time: 04:35:36
(UTC+00:00)

CANX-2 - Pass Details

Date: 21 May 2026
Orbit: 542 x 558 km, 97.9° (Epoch: 11 June)

Event Time Altitude Azimuth Distance (km) Brightness Sun altitude
Rises 04:48:08 0° 342° (NNW) 2,685 ? -16.0°
Reaches altitude 10° 04:50:53 10° 321° (NW) 1,798 ? -15.4°
Enters shadow 04:52:30 15° 297° (WNW) 1,493 ? -15.0°
